LUCH-5X (OLYMP-K 2)

Last updated on Thu Oct 30 2025 00:02:52 GMT+0000 (Coordinated Universal Time)

1 55841U 23031A 25302.73551257 .00000043 00000+0 00000+0 0 9994 2 55841 0.0316 85.5295 0001061 301.5191 338.0512 1.00271913 9620
UTC large
Height (km)
Speed (km/s)
/
Latitude / Longitude
Inclination (degrees)
Orbital Period (minutes)
Azimuth
Elevation
Range (km)
Doppler Factor

Next 0 passes for location: London (51.5072 / 0.1276)

Sorry there are no passes over London.